SITE: BDASw,YEAR: 2005,,,,,,
2005date,time,pzhd (cm),gw temp (C),DWT (cm),WT elev (m),,
01/01/05,0:00,117.9,14.1,241.1,1370.853,,Depth to water table:
01/01/05,0:30,118.4,14.1,240.6,1370.858,,DWT = SCL - CH - h (all values in cm)
01/01/05,1:00,118.0,14.1,241.0,1370.854,,where
01/01/05,1:30,118.2,14.1,240.8,1370.856,,SCL = sensor cable length = 490.5 cm
01/01/05,2:00,118.2,14.1,240.8,1370.856,,CH = casing height of well = 131.5 cm
01/01/05,2:30,117.6,14.1,241.4,1370.850,,h = height of water above sensor (from pzhd column)
01/01/05,3:00,117.9,14.1,241.1,1370.853,,
01/01/05,3:30,118.0,14.1,241.0,1370.854,,WT elevation:
01/01/05,4:00,117.8,14.1,241.2,1370.852,,Sensor elev = 1369.674 m asl
01/01/05,4:30,118.2,14.1,240.8,1370.856,,WT elev = sensor elev + h (from pzhd column)
01/01/05,5:00,118.5,14.1,240.5,1370.859,,
01/01/05,5:30,118.1,14.1,240.9,1370.855,,
01/01/05,6:00,118.8,14.1,240.2,1370.862,,
01/01/05,6:30,118.4,14.1,240.6,1370.858,,Dates with missing data (# 0.5 hr data points):
01/01/05,7:00,118.4,14.1,240.6,1370.858,,4/21 (2).
01/01/05,7:30,117.8,14.2,241.2,1370.852,,
01/01/05,8:00,117.8,14.1,241.2,1370.852,,
01/01/05,8:30,118.1,14.1,240.9,1370.855,,Dates w/missing T data:
01/01/05,9:00,117.7,14.1,241.3,1370.851,,"4/21, 8/17, 11/2, 11/9, 11/13, 12/7."
01/01/05,9:30,117.4,14.2,241.6,1370.848,,
01/01/05,10:00,117.7,14.1,241.3,1370.851,,
01/01/05,10:30,117.6,14.2,241.4,1370.850,,
01/01/05,11:00,118.2,14.1,240.8,1370.856,,
01/01/05,11:30,117.9,14.1,241.1,1370.853,,
01/01/05,12:00,117.7,14.1,241.3,1370.851,,
01/01/05,12:30,117.6,14.1,241.4,1370.850,,
01/01/05,13:00,118.0,14.2,241.0,1370.854,,
01/01/05,13:30,118.3,14.1,240.7,1370.857,,
01/01/05,14:00,118.6,14.2,240.4,1370.860,,
01/01/05,14:30,118.4,14.1,240.6,1370.858,,
01/01/05,15:00,118.5,14.1,240.5,1370.859,,
01/01/05,15:30,118.6,14.1,240.4,1370.860,,
01/01/05,16:00,118.5,14.1,240.5,1370.859,,
01/01/05,16:30,118.6,14.2,240.4,1370.860,,
01/01/05,17:00,118.2,14.1,240.8,1370.856,,
01/01/05,17:30,118.4,14.1,240.6,1370.858,,
01/01/05,18:00,118.2,14.1,240.8,1370.856,,
01/01/05,18:30,117.9,14.1,241.1,1370.853,,
01/01/05,19:00,118.9,14.1,240.1,1370.863,,
01/01/05,19:30,118.3,14.1,240.7,1370.857,,
01/01/05,20:00,117.8,14.1,241.2,1370.852,,
01/01/05,20:30,118.2,14.2,240.8,1370.856,,
01/01/05,21:00,118.0,14.1,241.0,1370.854,,
01/01/05,21:30,118.2,14.2,240.8,1370.856,,
01/01/05,22:00,117.9,14.1,241.1,1370.853,,
01/01/05,22:30,118.4,14.2,240.6,1370.858,,
01/01/05,23:00,117.8,14.1,241.2,1370.852,,
01/01/05,23:30,117.8,14.1,241.2,1370.852,,
01/02/05,0:00,119.0,14.1,240.0,1370.864,,
01/02/05,0:30,117.8,14.1,241.2,1370.852,,
01/02/05,1:00,118.3,14.1,240.7,1370.857,,
01/02/05,1:30,118.0,14.1,241.0,1370.854,,
01/02/05,2:00,117.8,14.1,241.2,1370.852,,
01/02/05,2:30,118.6,14.1,240.4,1370.860,,
01/02/05,3:00,118.5,14.1,240.5,1370.859,,
01/02/05,3:30,118.1,14.1,240.9,1370.855,,
01/02/05,4:00,118.5,14.1,240.5,1370.859,,
01/02/05,4:30,118.5,14.1,240.5,1370.859,,
01/02/05,5:00,118.6,14.1,240.4,1370.860,,
01/02/05,5:30,118.7,14.1,240.3,1370.861,,
01/02/05,6:00,118.2,14.1,240.8,1370.856,,
01/02/05,6:30,118.1,14.1,240.9,1370.855,,
01/02/05,7:00,118.5,14.1,240.5,1370.859,,
01/02/05,7:30,118.2,14.1,240.8,1370.856,,
01/02/05,8:00,118.3,14.1,240.7,1370.857,,
01/02/05,8:30,118.4,14.1,240.6,1370.858,,
01/02/05,9:00,118.5,14.1,240.5,1370.859,,
01/02/05,9:30,118.2,14.1,240.8,1370.856,,
01/02/05,10:00,118.6,14.1,240.4,1370.860,,
01/02/05,10:30,118.2,14.1,240.8,1370.856,,
01/02/05,11:00,118.1,14.1,240.9,1370.855,,
01/02/05,11:30,118.6,14.1,240.4,1370.860,,
01/02/05,12:00,117.9,14.1,241.1,1370.853,,
01/02/05,12:30,118.3,14.1,240.7,1370.857,,
01/02/05,13:00,118.0,14.1,241.0,1370.854,,
01/02/05,13:30,118.5,14.1,240.5,1370.859,,
01/02/05,14:00,118.3,14.1,240.7,1370.857,,
01/02/05,14:30,118.9,14.1,240.1,1370.863,,
01/02/05,15:00,118.4,14.1,240.6,1370.858,,
01/02/05,15:30,118.5,14.1,240.5,1370.859,,
01/02/05,16:00,118.8,14.1,240.2,1370.862,,
01/02/05,16:30,118.7,14.1,240.3,1370.861,,
01/02/05,17:00,118.4,14.1,240.6,1370.858,,
01/02/05,17:30,119.0,14.1,240.0,1370.864,,
01/02/05,18:00,118.4,14.1,240.6,1370.858,,
01/02/05,18:30,119.2,14.1,239.8,1370.866,,
01/02/05,19:00,118.7,14.1,240.3,1370.861,,
01/02/05,19:30,118.5,14.1,240.5,1370.859,,
01/02/05,20:00,118.5,14.1,240.5,1370.859,,
01/02/05,20:30,118.3,14.1,240.7,1370.857,,
01/02/05,21:00,118.7,14.1,240.3,1370.861,,
01/02/05,21:30,118.3,14.1,240.7,1370.857,,
01/02/05,22:00,118.5,14.1,240.5,1370.859,,
01/02/05,22:30,118.3,14.1,240.7,1370.857,,
01/02/05,23:00,118.3,14.1,240.7,1370.857,,
01/02/05,23:30,118.1,14.1,240.9,1370.855,,
01/03/05,0:00,118.3,14.1,240.7,1370.857,,
01/03/05,0:30,118.0,14.1,241.0,1370.854,,
01/03/05,1:00,118.3,14.1,240.7,1370.857,,
01/03/05,1:30,118.7,14.1,240.3,1370.861,,
01/03/05,2:00,118.5,14.1,240.5,1370.859,,
01/03/05,2:30,118.5,14.1,240.5,1370.859,,
01/03/05,3:00,118.3,14.1,240.7,1370.857,,
01/03/05,3:30,118.9,14.1,240.1,1370.863,,
01/03/05,4:00,118.2,14.1,240.8,1370.856,,
01/03/05,4:30,118.3,14.1,240.7,1370.857,,
01/03/05,5:00,118.3,14.1,240.7,1370.857,,
01/03/05,5:30,118.2,14.1,240.8,1370.856,,
01/03/05,6:00,118.7,14.1,240.3,1370.861,,
01/03/05,6:30,118.7,14.1,240.3,1370.861,,
01/03/05,7:00,118.4,14.1,240.6,1370.858,,
01/03/05,7:30,119.1,14.1,239.9,1370.865,,
01/03/05,8:00,118.4,14.1,240.6,1370.858,,
01/03/05,8:30,118.9,14.1,240.1,1370.863,,
01/03/05,9:00,118.6,14.1,240.4,1370.860,,
01/03/05,9:30,118.9,14.1,240.1,1370.863,,
01/03/05,10:00,118.4,14.1,240.6,1370.858,,
01/03/05,10:30,118.8,14.1,240.2,1370.862,,
01/03/05,11:00,118.1,14.1,240.9,1370.855,,
01/03/05,11:30,118.5,14.1,240.5,1370.859,,
01/03/05,12:00,118.4,14.1,240.6,1370.858,,
01/03/05,12:30,119.0,14.1,240.0,1370.864,,
01/03/05,13:00,118.3,14.1,240.7,1370.857,,
01/03/05,13:30,118.7,14.1,240.3,1370.861,,
01/03/05,14:00,118.9,14.1,240.1,1370.863,,
01/03/05,14:30,119.3,14.1,239.7,1370.867,,
01/03/05,15:00,119.3,14.1,239.7,1370.867,,
01/03/05,15:30,119.5,14.1,239.5,1370.869,,
01/03/05,16:00,119.3,14.1,239.7,1370.867,,
01/03/05,16:30,119.1,14.1,239.9,1370.865,,
01/03/05,17:00,118.8,14.1,240.2,1370.862,,
01/03/05,17:30,119.4,14.1,239.6,1370.868,,
01/03/05,18:00,119.2,14.1,239.8,1370.866,,
01/03/05,18:30,118.7,14.1,240.3,1370.861,,
01/03/05,19:00,119.1,14.1,239.9,1370.865,,
01/03/05,19:30,119.0,14.1,240.0,1370.864,,
01/03/05,20:00,119.5,14.1,239.5,1370.869,,
01/03/05,20:30,119.3,14.1,239.7,1370.867,,
01/03/05,21:00,119.2,14.1,239.8,1370.866,,
01/03/05,21:30,119.2,14.1,239.8,1370.866,,
01/03/05,22:00,118.6,14.1,240.4,1370.860,,
01/03/05,22:30,119.4,14.1,239.6,1370.868,,
01/03/05,23:00,119.4,14.1,239.6,1370.868,,
01/03/05,23:30,119.1,14.1,239.9,1370.865,,
01/04/05,0:00,119.4,14.1,239.6,1370.868,,
01/04/05,0:30,119.0,14.1,240.0,1370.864,,
01/04/05,1:00,119.6,14.1,239.4,1370.870,,
01/04/05,1:30,119.3,14.1,239.7,1370.867,,
01/04/05,2:00,120.2,14.1,238.8,1370.876,,
01/04/05,2:30,119.3,14.1,239.7,1370.867,,
01/04/05,3:00,119.9,14.1,239.1,1370.873,,
01/04/05,3:30,119.9,14.1,239.1,1370.873,,
01/04/05,4:00,119.3,14.1,239.7,1370.867,,
01/04/05,4:30,119.9,14.1,239.1,1370.873,,
01/04/05,5:00,119.3,14.1,239.7,1370.867,,
01/04/05,5:30,120.7,14.1,238.3,1370.881,,
01/04/05,6:00,120.3,14.1,238.7,1370.877,,
01/04/05,6:30,119.8,14.1,239.2,1370.872,,
01/04/05,7:00,119.8,14.1,239.2,1370.872,,
01/04/05,7:30,119.7,14.1,239.3,1370.871,,
01/04/05,8:00,119.6,14.1,239.4,1370.870,,
01/04/05,8:30,120.3,14.1,238.7,1370.877,,
01/04/05,9:00,120.1,14.1,238.9,1370.875,,
01/04/05,9:30,119.9,14.1,239.1,1370.873,,
01/04/05,10:00,119.6,14.1,239.4,1370.870,,
01/04/05,10:30,120.2,14.1,238.8,1370.876,,
01/04/05,11:00,120.2,14.1,238.8,1370.876,,
01/04/05,11:30,120.1,14.1,238.9,1370.875,,
01/04/05,12:00,119.4,14.1,239.6,1370.868,,
01/04/05,12:30,120.1,14.1,238.9,1370.875,,
01/04/05,13:00,120.0,14.1,239.0,1370.874,,
01/04/05,13:30,119.9,14.1,239.1,1370.873,,
01/04/05,14:00,120.3,14.1,238.7,1370.877,,
01/04/05,14:30,121.1,14.1,237.9,1370.885,,
01/04/05,15:00,120.0,14.1,239.0,1370.874,,
01/04/05,15:30,120.8,14.1,238.2,1370.882,,
01/04/05,16:00,120.3,14.1,238.7,1370.877,,
01/04/05,16:30,119.8,14.1,239.2,1370.872,,
01/04/05,17:00,120.2,14.1,238.8,1370.876,,
01/04/05,17:30,121.1,14.1,237.9,1370.885,,
01/04/05,18:00,120.0,14.1,239.0,1370.874,,
01/04/05,18:30,120.1,14.1,238.9,1370.875,,
01/04/05,19:00,120.4,14.1,238.6,1370.878,,
01/04/05,19:30,120.5,14.1,238.5,1370.879,,
01/04/05,20:00,120.6,14.1,238.4,1370.880,,
01/04/05,20:30,120.4,14.1,238.6,1370.878,,
01/04/05,21:00,120.5,14.1,238.5,1370.879,,
01/04/05,21:30,120.4,14.1,238.6,1370.878,,
01/04/05,22:00,120.1,14.1,238.9,1370.875,,
01/04/05,22:30,119.9,14.1,239.1,1370.873,,
01/04/05,23:00,120.0,14.1,239.0,1370.874,,
01/04/05,23:30,120.6,14.1,238.4,1370.880,,
01/05/05,0:00,120.4,14.1,238.6,1370.878,,
01/05/05,0:30,120.0,14.1,239.0,1370.874,,
01/05/05,1:00,119.9,14.1,239.1,1370.873,,
01/05/05,1:30,120.1,14.1,238.9,1370.875,,
01/05/05,2:00,119.7,14.1,239.3,1370.871,,
01/05/05,2:30,120.5,14.1,238.5,1370.879,,
01/05/05,3:00,120.0,14.1,239.0,1370.874,,
01/05/05,3:30,119.9,14.1,239.1,1370.873,,
01/05/05,4:00,119.6,14.1,239.4,1370.870,,
01/05/05,4:30,120.1,14.1,238.9,1370.875,,
01/05/05,5:00,120.7,14.1,238.3,1370.881,,
01/05/05,5:30,120.3,14.1,238.7,1370.877,,
01/05/05,6:00,119.9,14.1,239.1,1370.873,,
01/05/05,6:30,120.1,14.1,238.9,1370.875,,
01/05/05,7:00,119.7,14.1,239.3,1370.871,,
01/05/05,7:30,119.5,14.1,239.5,1370.869,,
01/05/05,8:00,120.0,14.1,239.0,1370.874,,
01/05/05,8:30,120.1,14.1,238.9,1370.875,,
01/05/05,9:00,120.1,14.1,238.9,1370.875,,
01/05/05,9:30,120.5,14.1,238.5,1370.879,,
01/05/05,10:00,120.0,14.1,239.0,1370.874,,
01/05/05,10:30,119.7,14.1,239.3,1370.871,,
01/05/05,11:00,119.6,14.1,239.4,1370.870,,
01/05/05,11:30,120.0,14.1,239.0,1370.874,,
01/05/05,12:00,120.4,14.1,238.6,1370.878,,
01/05/05,12:30,119.6,14.1,239.4,1370.870,,
01/05/05,13:00,120.6,14.1,238.4,1370.880,,
01/05/05,13:30,120.2,14.1,238.8,1370.876,,
01/05/05,14:00,120.7,14.1,238.3,1370.881,,
01/05/05,14:30,120.2,14.1,238.8,1370.876,,
01/05/05,15:00,120.8,14.1,238.2,1370.882,,
01/05/05,15:30,120.6,14.1,238.4,1370.880,,
01/05/05,16:00,120.7,14.1,238.3,1370.881,,
01/05/05,16:30,121.2,14.1,237.8,1370.886,,
01/05/05,17:00,120.6,14.1,238.4,1370.880,,
01/05/05,17:30,120.8,14.1,238.2,1370.882,,
01/05/05,18:00,121.1,14.1,237.9,1370.885,,
01/05/05,18:30,120.6,14.1,238.4,1370.880,,
01/05/05,19:00,120.8,14.1,238.2,1370.882,,
01/05/05,19:30,120.0,14.1,239.0,1370.874,,
01/05/05,20:00,120.6,14.1,238.4,1370.880,,
01/05/05,20:30,120.9,14.1,238.1,1370.883,,
01/05/05,21:00,120.4,14.1,238.6,1370.878,,
01/05/05,21:30,120.8,14.1,238.2,1370.882,,
01/05/05,22:00,120.6,14.1,238.4,1370.880,,
01/05/05,22:30,120.8,14.1,238.2,1370.882,,
01/05/05,23:00,120.6,14.1,238.4,1370.880,,
01/05/05,23:30,120.7,14.1,238.3,1370.881,,
01/06/05,0:00,120.4,14.1,238.6,1370.878,,
01/06/05,0:30,121.0,14.1,238.0,1370.884,,
01/06/05,1:00,120.7,14.1,238.3,1370.881,,
01/06/05,1:30,121.0,14.1,238.0,1370.884,,
01/06/05,2:00,120.9,14.1,238.1,1370.883,,
01/06/05,2:30,120.7,14.1,238.3,1370.881,,
01/06/05,3:00,120.9,14.1,238.1,1370.883,,
01/06/05,3:30,120.7,14.1,238.3,1370.881,,
01/06/05,4:00,121.0,14.1,238.0,1370.884,,
01/06/05,4:30,120.5,14.1,238.5,1370.879,,
01/06/05,5:00,121.1,14.1,237.9,1370.885,,
01/06/05,5:30,121.2,14.1,237.8,1370.886,,
01/06/05,6:00,121.0,14.1,238.0,1370.884,,
01/06/05,6:30,121.2,14.1,237.8,1370.886,,
01/06/05,7:00,120.8,14.1,238.2,1370.882,,
01/06/05,7:30,121.0,14.0,238.0,1370.884,,
01/06/05,8:00,121.4,14.1,237.6,1370.888,,
01/06/05,8:30,121.1,14.1,237.9,1370.885,,
01/06/05,9:00,120.9,14.1,238.1,1370.883,,
01/06/05,9:30,121.0,14.1,238.0,1370.884,,
01/06/05,10:00,121.0,14.1,238.0,1370.884,,
01/06/05,10:30,121.0,14.1,238.0,1370.884,,
01/06/05,11:00,120.8,14.1,238.2,1370.882,,
01/06/05,11:30,121.6,14.0,237.4,1370.890,,
01/06/05,12:00,120.8,14.0,238.2,1370.882,,
01/06/05,12:30,121.3,14.1,237.7,1370.887,,
01/06/05,13:00,121.7,14.1,237.3,1370.891,,
01/06/05,13:30,121.5,14.0,237.5,1370.889,,
01/06/05,14:00,121.7,14.1,237.3,1370.891,,
01/06/05,14:30,122.0,14.1,237.0,1370.894,,
01/06/05,15:00,121.7,14.1,237.3,1370.891,,
01/06/05,15:30,121.5,14.1,237.5,1370.889,,
01/06/05,16:00,121.8,14.1,237.2,1370.892,,
01/06/05,16:30,121.7,14.1,237.3,1370.891,,
01/06/05,17:00,122.2,14.1,236.8,1370.896,,
01/06/05,17:30,121.8,14.1,237.2,1370.892,,
01/06/05,18:00,122.0,14.1,237.0,1370.894,,
01/06/05,18:30,122.6,14.1,236.4,1370.900,,
01/06/05,19:00,122.0,14.0,237.0,1370.894,,
01/06/05,19:30,121.6,14.1,237.4,1370.890,,
01/06/05,20:00,122.8,14.0,236.2,1370.902,,
01/06/05,20:30,121.9,14.1,237.1,1370.893,,
01/06/05,21:00,121.8,14.1,237.2,1370.892,,
01/06/05,21:30,122.1,14.0,236.9,1370.895,,
01/06/05,22:00,121.9,14.0,237.1,1370.893,,
01/06/05,22:30,121.9,14.1,237.1,1370.893,,
01/06/05,23:00,121.6,14.0,237.4,1370.890,,
01/06/05,23:30,121.1,14.1,237.9,1370.885,,
01/07/05,0:00,121.5,14.1,237.5,1370.889,,
01/07/05,0:30,121.9,14.0,237.1,1370.893,,
01/07/05,1:00,122.0,14.0,237.0,1370.894,,
01/07/05,1:30,121.9,14.0,237.1,1370.893,,
01/07/05,2:00,122.0,14.0,237.0,1370.894,,
01/07/05,2:30,122.1,14.0,236.9,1370.895,,
01/07/05,3:00,121.9,14.0,237.1,1370.893,,
01/07/05,3:30,122.1,14.0,236.9,1370.895,,
01/07/05,4:00,122.1,14.0,236.9,1370.895,,
01/07/05,4:30,121.1,14.0,237.9,1370.885,,
01/07/05,5:00,121.8,14.0,237.2,1370.892,,
01/07/05,5:30,121.9,14.0,237.1,1370.893,,
01/07/05,6:00,121.9,14.0,237.1,1370.893,,
01/07/05,6:30,122.0,14.0,237.0,1370.894,,
01/07/05,7:00,121.4,14.0,237.6,1370.888,,
01/07/05,7:30,121.6,14.0,237.4,1370.890,,
01/07/05,8:00,122.0,14.0,237.0,1370.894,,
01/07/05,8:30,121.5,14.0,237.5,1370.889,,
01/07/05,9:00,121.3,14.0,237.7,1370.887,,
01/07/05,9:30,121.5,14.0,237.5,1370.889,,
01/07/05,10:00,120.8,14.0,238.2,1370.882,,
01/07/05,10:30,121.0,14.0,238.0,1370.884,,
01/07/05,11:00,121.2,14.0,237.8,1370.886,,
01/07/05,11:30,121.6,14.0,237.4,1370.890,,
01/07/05,12:00,121.5,14.0,237.5,1370.889,,
01/07/05,12:30,121.6,14.0,237.4,1370.890,,
01/07/05,13:00,121.9,14.0,237.1,1370.893,,
01/07/05,13:30,122.1,14.0,236.9,1370.895,,
01/07/05,14:00,122.4,14.0,236.6,1370.898,,
01/07/05,14:30,122.1,14.0,236.9,1370.895,,
01/07/05,15:00,122.6,14.0,236.4,1370.900,,
01/07/05,15:30,122.3,14.0,236.7,1370.897,,
01/07/05,16:00,123.1,14.0,235.9,1370.905,,
01/07/05,16:30,122.1,14.0,236.9,1370.895,,
01/07/05,17:00,122.3,14.0,236.7,1370.897,,
01/07/05,17:30,122.3,14.0,236.7,1370.897,,
01/07/05,18:00,122.4,14.0,236.6,1370.898,,
01/07/05,18:30,122.5,14.0,236.5,1370.899,,
01/07/05,19:00,122.0,14.0,237.0,1370.894,,
01/07/05,19:30,122.0,14.0,237.0,1370.894,,
01/07/05,20:00,121.7,14.0,237.3,1370.891,,
01/07/05,20:30,122.0,14.0,237.0,1370.894,,
01/07/05,21:00,122.6,14.0,236.4,1370.900,,
01/07/05,21:30,121.7,14.0,237.3,1370.891,,
01/07/05,22:00,121.8,14.0,237.2,1370.892,,
01/07/05,22:30,122.4,14.0,236.6,1370.898,,
01/07/05,23:00,122.0,14.0,237.0,1370.894,,
01/07/05,23:30,121.8,14.0,237.2,1370.892,,
01/08/05,0:00,121.9,14.0,237.1,1370.893,,
01/08/05,0:30,121.9,14.0,237.1,1370.893,,
01/08/05,1:00,122.2,14.0,236.8,1370.896,,
01/08/05,1:30,122.5,14.0,236.5,1370.899,,
01/08/05,2:00,122.3,14.0,236.7,1370.897,,
01/08/05,2:30,121.9,14.0,237.1,1370.893,,
01/08/05,3:00,121.9,14.0,237.1,1370.893,,
01/08/05,3:30,121.8,14.0,237.2,1370.892,,
01/08/05,4:00,122.1,14.0,236.9,1370.895,,
01/08/05,4:30,121.7,14.0,237.3,1370.891,,
01/08/05,5:00,122.4,14.0,236.6,1370.898,,
01/08/05,5:30,122.3,14.0,236.7,1370.897,,
01/08/05,6:00,122.5,14.0,236.5,1370.899,,
01/08/05,6:30,122.2,14.0,236.8,1370.896,,
01/08/05,7:00,122.5,14.0,236.5,1370.899,,
01/08/05,7:30,122.3,14.0,236.7,1370.897,,
01/08/05,8:00,122.5,14.0,236.5,1370.899,,
01/08/05,8:30,121.9,14.0,237.1,1370.893,,
01/08/05,9:00,122.5,14.0,236.5,1370.899,,
01/08/05,9:30,121.7,14.0,237.3,1370.891,,
01/08/05,10:00,121.7,14.0,237.3,1370.891,,
01/08/05,10:30,121.5,14.0,237.5,1370.889,,
01/08/05,11:00,121.5,14.0,237.5,1370.889,,
01/08/05,11:30,122.0,14.0,237.0,1370.894,,
01/08/05,12:00,122.1,14.0,236.9,1370.895,,
01/08/05,12:30,122.5,14.0,236.5,1370.899,,
01/08/05,13:00,122.4,14.0,236.6,1370.898,,
01/08/05,13:30,122.1,14.0,236.9,1370.895,,
01/08/05,14:00,122.8,14.0,236.2,1370.902,,
01/08/05,14:30,123.2,14.0,235.8,1370.906,,
01/08/05,15:00,122.7,14.0,236.3,1370.901,,
01/08/05,15:30,122.5,14.0,236.5,1370.899,,
01/08/05,16:00,122.4,14.0,236.6,1370.898,,
01/08/05,16:30,123.6,14.0,235.4,1370.910,,
01/08/05,17:00,122.7,14.0,236.3,1370.901,,
01/08/05,17:30,122.6,14.0,236.4,1370.900,,
01/08/05,18:00,123.1,14.0,235.9,1370.905,,
01/08/05,18:30,122.9,14.0,236.1,1370.903,,
01/08/05,19:00,122.8,14.0,236.2,1370.902,,
01/08/05,19:30,122.4,14.0,236.6,1370.898,,
01/08/05,20:00,122.7,14.0,236.3,1370.901,,
01/08/05,20:30,123.1,14.0,235.9,1370.905,,
01/08/05,21:00,122.4,14.0,236.6,1370.898,,
01/08/05,21:30,122.1,14.0,236.9,1370.895,,
01/08/05,22:00,122.3,14.0,236.7,1370.897,,
01/08/05,22:30,122.5,14.0,236.5,1370.899,,
01/08/05,23:00,121.8,14.0,237.2,1370.892,,
01/08/05,23:30,121.7,14.0,237.3,1370.891,,
01/09/05,0:00,122.4,14.0,236.6,1370.898,,
01/09/05,0:30,122.3,14.0,236.7,1370.897,,
01/09/05,1:00,122.6,14.0,236.4,1370.900,,
01/09/05,1:30,122.4,14.0,236.6,1370.898,,
01/09/05,2:00,123.0,14.0,236.0,1370.904,,
01/09/05,2:30,123.1,14.0,235.9,1370.905,,
01/09/05,3:00,122.4,14.0,236.6,1370.898,,
01/09/05,3:30,122.8,14.0,236.2,1370.902,,
01/09/05,4:00,122.5,14.0,236.5,1370.899,,
01/09/05,4:30,122.2,14.0,236.8,1370.896,,
01/09/05,5:00,122.3,14.0,236.7,1370.897,,
01/09/05,5:30,122.8,14.0,236.2,1370.902,,
01/09/05,6:00,122.6,14.0,236.4,1370.900,,
01/09/05,6:30,122.9,14.0,236.1,1370.903,,
01/09/05,7:00,122.7,14.0,236.3,1370.901,,
01/09/05,7:30,122.8,14.0,236.2,1370.902,,
01/09/05,8:00,122.7,14.0,236.3,1370.901,,
01/09/05,8:30,122.7,14.0,236.3,1370.901,,
01/09/05,9:00,122.7,14.0,236.3,1370.901,,
01/09/05,9:30,122.7,14.0,236.3,1370.901,,
01/09/05,10:00,122.1,14.0,236.9,1370.895,,
01/09/05,10:30,122.9,14.0,236.1,1370.903,,
01/09/05,11:00,122.9,14.0,236.1,1370.903,,
01/09/05,11:30,122.7,14.0,236.3,1370.901,,
01/09/05,12:00,122.5,14.0,236.5,1370.899,,
01/09/05,12:30,123.9,14.0,235.1,1370.913,,
01/09/05,13:00,123.0,14.0,236.0,1370.904,,
01/09/05,13:30,122.9,14.0,236.1,1370.903,,
01/09/05,14:00,122.8,14.0,236.2,1370.902,,
01/09/05,14:30,123.0,14.0,236.0,1370.904,,
01/09/05,15:00,123.2,14.0,235.8,1370.906,,
01/09/05,15:30,123.2,13.9,235.8,1370.906,,
01/09/05,16:00,123.2,14.0,235.8,1370.906,,
01/09/05,16:30,123.4,14.0,235.6,1370.908,,
01/09/05,17:00,123.6,14.0,235.4,1370.910,,
01/09/05,17:30,122.9,14.0,236.1,1370.903,,
01/09/05,18:00,122.6,14.0,236.4,1370.900,,
01/09/05,18:30,123.0,14.0,236.0,1370.904,,
01/09/05,19:00,122.6,14.0,236.4,1370.900,,
01/09/05,19:30,123.0,14.0,236.0,1370.904,,
01/09/05,20:00,123.7,14.0,235.3,1370.911,,
01/09/05,20:30,124.3,14.0,234.7,1370.917,,
01/09/05,21:00,123.0,14.0,236.0,1370.904,,
01/09/05,21:30,123.5,14.0,235.5,1370.909,,
01/09/05,22:00,122.6,14.0,236.4,1370.900,,
01/09/05,22:30,122.7,14.0,236.3,1370.901,,
01/09/05,23:00,123.0,14.0,236.0,1370.904,,
01/09/05,23:30,122.0,14.0,237.0,1370.894,,
01/10/05,0:00,122.7,14.0,236.3,1370.901,,
01/10/05,0:30,123.7,13.9,235.3,1370.911,,
01/10/05,1:00,123.1,13.9,235.9,1370.905,,
01/10/05,1:30,122.7,14.0,236.3,1370.901,,
01/10/05,2:00,122.6,14.0,236.4,1370.900,,
01/10/05,2:30,123.5,13.9,235.5,1370.909,,
01/10/05,3:00,123.1,14.0,235.9,1370.905,,
01/10/05,3:30,122.6,13.9,236.4,1370.900,,
01/10/05,4:00,123.0,14.0,236.0,1370.904,,
01/10/05,4:30,122.4,14.0,236.6,1370.898,,
01/10/05,5:00,123.1,13.9,235.9,1370.905,,
01/10/05,5:30,122.9,13.9,236.1,1370.903,,
01/10/05,6:00,123.2,13.9,235.8,1370.906,,
01/10/05,6:30,123.2,14.0,235.8,1370.906,,
01/10/05,7:00,123.5,13.9,235.5,1370.909,,
01/10/05,7:30,122.9,13.9,236.1,1370.903,,
01/10/05,8:00,123.6,13.9,235.4,1370.910,,
01/10/05,8:30,123.0,13.9,236.0,1370.904,,
01/10/05,9:00,123.4,13.9,235.6,1370.908,,
01/10/05,9:30,123.2,13.9,235.8,1370.906,,
01/10/05,10:00,123.7,13.9,235.3,1370.911,,
01/10/05,10:30,123.5,14.0,235.5,1370.909,,
01/10/05,11:00,123.2,13.9,235.8,1370.906,,
01/10/05,11:30,123.5,13.9,235.5,1370.909,,
01/10/05,12:00,123.4,13.9,235.6,1370.908,,
01/10/05,12:30,123.7,13.9,235.3,1370.911,,
01/10/05,13:00,123.6,13.9,235.4,1370.910,,
01/10/05,13:30,124.0,13.9,235.0,1370.914,,
01/10/05,14:00,124.2,13.9,234.8,1370.916,,
01/10/05,14:30,124.5,13.9,234.5,1370.919,,
01/10/05,15:00,124.2,13.9,234.8,1370.916,,
01/10/05,15:30,124.2,13.9,234.8,1370.916,,
01/10/05,16:00,124.3,13.9,234.7,1370.917,,
01/10/05,16:30,124.9,14.0,234.1,1370.923,,
01/10/05,17:00,124.4,13.9,234.6,1370.918,,
01/10/05,17:30,125.1,13.9,233.9,1370.925,,
01/10/05,18:00,124.6,13.9,234.4,1370.920,,
01/10/05,18:30,124.0,13.9,235.0,1370.914,,
01/10/05,19:00,124.7,13.9,234.3,1370.921,,
01/10/05,19:30,124.7,13.9,234.3,1370.921,,
01/10/05,20:00,125.2,13.9,233.8,1370.926,,
01/10/05,20:30,124.5,14.0,234.5,1370.919,,
01/10/05,21:00,124.5,13.9,234.5,1370.919,,
01/10/05,21:30,124.4,13.9,234.6,1370.918,,
01/10/05,22:00,125.1,13.9,233.9,1370.925,,
01/10/05,22:30,124.3,13.9,234.7,1370.917,,
01/10/05,23:00,124.4,13.9,234.6,1370.918,,
01/10/05,23:30,124.5,13.9,234.5,1370.919,,
01/11/05,0:00,124.9,13.9,234.1,1370.923,,
01/11/05,0:30,124.9,13.9,234.1,1370.923,,
01/11/05,1:00,125.2,13.9,233.8,1370.926,,
01/11/05,1:30,125.3,13.9,233.7,1370.927,,
01/11/05,2:00,125.2,13.9,233.8,1370.926,,
01/11/05,2:30,125.4,13.9,233.6,1370.928,,
01/11/05,3:00,125.7,13.9,233.3,1370.931,,
01/11/05,3:30,125.8,13.9,233.2,1370.932,,
01/11/05,4:00,126.0,13.9,233.0,1370.934,,
01/11/05,4:30,125.4,13.9,233.6,1370.928,,
01/11/05,5:00,125.2,13.9,233.8,1370.926,,
01/11/05,5:30,126.4,13.9,232.6,1370.938,,
01/11/05,6:00,126.6,13.9,232.4,1370.940,,
01/11/05,6:30,126.6,13.9,232.4,1370.940,,
01/11/05,7:00,126.9,13.9,232.1,1370.943,,
01/11/05,7:30,126.6,13.9,232.4,1370.940,,
01/11/05,8:00,127.2,13.9,231.8,1370.946,,
01/11/05,8:30,127.3,13.9,231.7,1370.947,,
01/11/05,9:00,127.9,13.9,231.1,1370.953,,
01/11/05,9:30,127.7,13.9,231.3,1370.951,,
01/11/05,10:00,128.0,13.9,231.0,1370.954,,
01/11/05,10:30,128.0,13.9,231.0,1370.954,,
01/11/05,11:00,128.1,13.9,230.9,1370.955,,
01/11/05,11:30,128.5,13.9,230.5,1370.959,,
01/11/05,12:00,129.5,13.9,229.5,1370.969,,
01/11/05,12:30,129.2,13.9,229.8,1370.966,,
01/11/05,13:00,129.3,13.9,229.7,1370.967,,
01/11/05,13:30,129.7,13.9,229.3,1370.971,,
01/11/05,14:00,130.5,13.9,228.5,1370.979,,
01/11/05,14:30,130.0,13.9,229.0,1370.974,,
01/11/05,15:00,130.3,13.9,228.7,1370.977,,
01/11/05,15:30,130.7,13.9,228.3,1370.981,,
01/11/05,16:00,131.0,13.9,228.0,1370.984,,
01/11/05,16:30,131.2,13.9,227.8,1370.986,,
01/11/05,17:00,131.5,13.9,227.5,1370.989,,
01/11/05,17:30,131.6,13.9,227.4,1370.990,,
01/11/05,18:00,131.6,13.9,227.4,1370.990,,
01/11/05,18:30,131.7,13.9,227.3,1370.991,,
01/11/05,19:00,132.1,13.9,226.9,1370.995,,
01/11/05,19:30,132.5,13.9,226.5,1370.999,,
01/11/05,20:00,132.7,13.9,226.3,1371.001,,
01/11/05,20:30,132.8,13.9,226.2,1371.002,,
01/11/05,21:00,132.5,13.9,226.5,1370.999,,
01/11/05,21:30,133.0,13.9,226.0,1371.004,,
01/11/05,22:00,133.4,13.9,225.6,1371.008,,
01/11/05,22:30,133.9,13.9,225.1,1371.013,,
01/11/05,23:00,134.1,13.9,224.9,1371.015,,
01/11/05,23:30,135.0,13.9,224.0,1371.024,,
01/12/05,0:00,134.2,13.9,224.8,1371.016,,
01/12/05,0:30,134.7,13.9,224.3,1371.021,,
01/12/05,1:00,135.0,13.9,224.0,1371.024,,
01/12/05,1:30,135.5,13.9,223.5,1371.029,,
01/12/05,2:00,135.9,13.9,223.1,1371.033,,
01/12/05,2:30,135.7,13.9,223.3,1371.031,,
01/12/05,3:00,135.5,13.9,223.5,1371.029,,
01/12/05,3:30,136.3,13.9,222.7,1371.037,,
01/12/05,4:00,136.0,13.9,223.0,1371.034,,
01/12/05,4:30,136.1,13.9,222.9,1371.035,,
01/12/05,5:00,136.0,13.9,223.0,1371.034,,